Home   Weather   Quincy   Past weeks
Flag for USA

Past Weather in Quincy, Illinois, USA — Yesterday and Last 2 Weeks

Now
93 °F

Sunny.


Feels Like: 101 °F
Forecast: 94 / 78 °F
Wind: 12 mph from Southwest

Location: Quincy Municipal / Baldwin

Current Time: Jul 20, 2019 at 3:53:03 pm

Latest Report: Jul 20, 2019 at 2:54 pm


Visibility: 10 mi

Pressure: 29.86 "Hg

Humidity: 50%

Dew Point: 72 °F

Location of QuincyLocation

Past Weather in Quincy — Graph

°F

Quincy Temperature Yesterday

Maximum temperature yesterday: 94 °F (at 2:54 pm)
Minimum temperature yesterday: 77 °F (at 4:54 am)
Average temperature yesterday: 86 °F

High & Low Weather Summary for the Past Weeks

 TemperatureHumidityPressure
High94 °F (Jul 10, 2:54 pm)97% (Jul 6, 3:54 am)30.09 "Hg (Jul 6, 3:54 am)
Low67 °F (Jul 8, 5:54 am)39% (Jul 13, 2:54 pm)29.75 "Hg (Jul 18, 6:54 pm)
Average80 °F70%29.95 "Hg
* Reported Jul 5 1:54 pm — Jul 20 1:54 pm, Quincy. Weather by CustomWeather, © 2019

Note: Actual official high and low records may vary slightly from our data, if they occured in-between our weather recording intervals... More about our weather records

Advertising

Quincy Weather History for the Previous 24 Hours

Scroll right to see more
 ConditionsComfort  
Time TempWeatherWind HumidityBarometerVisibility
1:54 pm
Sat, Jul 20
93 °FSunny.13 mph52%29.85 "Hg10 mi
12:54 pm92 °FSunny.12 mph56%29.86 "Hg10 mi
11:54 am90 °FSunny.12 mph59%29.87 "Hg10 mi
10:54 am88 °FSunny.15 mph63%29.87 "Hg10 mi
9:54 am85 °FSunny.17 mph68%29.85 "Hg10 mi
8:54 am84 °FSunny.14 mph70%29.86 "Hg10 mi
7:54 am81 °FSunny.10 mph74%29.87 "Hg10 mi
6:54 am79 °FSunny.8 mph79%29.88 "Hg10 mi
5:54 am78 °FSunny.10 mph82%29.88 "Hg10 mi
4:54 am79 °FClear.12 mph79%29.86 "Hg10 mi
3:54 am80 °FClear.8 mph79%29.86 "Hg10 mi
2:54 am81 °FClear.10 mph77%29.85 "Hg10 mi
1:54 am82 °FClear.14 mph77%29.85 "Hg10 mi
12:54 am82 °FClear.9 mph77%29.85 "Hg10 mi
11:54 pm
Fri, Jul 19
83 °FClear.9 mph77%29.84 "Hg10 mi
10:54 pm84 °FClear.9 mph74%29.82 "Hg10 mi
9:54 pm85 °FClear.10 mph75%29.80 "Hg10 mi
8:54 pm86 °FClear.10 mph72%29.79 "Hg10 mi
7:54 pm88 °FSunny.10 mph67%29.78 "Hg10 mi
6:54 pm91 °FSunny.14 mph61%29.79 "Hg10 mi
5:54 pm92 °FSunny.14 mph60%29.80 "Hg10 mi
4:54 pm93 °FSunny.15 mph60%29.81 "Hg10 mi
3:54 pm93 °FSunny.14 mph60%29.82 "Hg10 mi
Weather by CustomWeather, © 2019

See weather overview